EW8178 Weather Reports


Display with metric or nautical units.
time (UTC)temp
F
wind
direction
speed
MPH
gust
MPH
rain 1hr
in
rain 24hr
in
rain mn
in
humidity
%
barometer
mb
20190123223040 18 101 2.0 6.0 0.00 0.00 0.00 95 992.9
20190123221551 18 81 3.0 6.0 0.00 0.00 0.00 95 992.9
20190123220121 18 84 3.0 7.0 0.00 0.00 0.00 95 992.8
20190123214546 18 97 2.0 7.0 0.00 0.00 0.00 95 992.9
20190123213130 18 105 2.0 4.0 0.00 0.00 0.00 95 992.8
20190123211613 18 121 2.0 5.0 0.00 0.00 0.00 95 992.8
20190123210102 18 67 2.0 6.0 0.00 0.00 0.00 95 992.7
20190123204558 18 87 3.0 8.0 0.00 0.00 0.00 95 992.7
20190123203140 18 111 3.0 7.0 0.00 0.00 0.00 95 992.6
20190123201532 18 107 2.0 7.0 0.00 0.00 0.00 95 992.5
20190123200117 18 109 3.0 8.0 0.00 0.00 0.00 95 992.5
20190123194548 18 102 3.0 7.0 0.00 0.00 0.00 95 992.4
20190123193036 18 89 3.0 7.0 0.00 0.00 0.00 95 992.3
20190123191536 18 76 3.0 7.0 0.00 0.00 0.00 95 992.3
20190123190041 18 119 3.0 8.0 0.00 0.00 0.00 95 992.3
20190123184537 18 94 2.0 7.0 0.00 0.00 0.00 95 992.2
20190123183052 18 82 3.0 7.0 0.00 0.00 0.00 95 992.1
20190123181601 18 121 4.0 8.0 0.00 0.00 0.00 95 992.0
20190123180024 18 99 4.0 7.0 0.00 0.00 0.00 95 992.0
20190123174535 18 114 3.0 6.0 0.00 0.00 0.00 95 991.9
20190123173032 18 94 3.0 7.0 0.00 0.00 0.00 95 992.0
20190123171541 18 96 3.0 8.0 0.00 0.00 0.00 95 991.9
20190123170039 18 123 3.0 9.0 0.00 0.00 0.00 95 991.9
20190123164537 18 82 3.0 7.0 0.00 0.00 0.00 95 991.7
20190123163107 18 103 2.0 9.0 0.00 0.00 0.00 95 991.6
20190123161520 18 52 3.0 8.0 0.00 0.00 0.00 95 991.5
20190123160018 18 88 3.0 10.0 0.00 0.00 0.00 95 991.4
20190123154539 18 98 2.0 8.0 0.00 0.00 0.00 95 991.3
20190123153027 19 109 4.0 8.0 0.00 0.00 0.00 95 991.2
20190123151517 19 90 3.0 7.0 0.00 0.00 0.00 95 991.2
20190123150136 19 72 2.0 7.0 0.00 0.00 0.00 95 991.1
20190123144549 19 117 3.0 8.0 0.00 0.00 0.00 95 991.0
20190123143015 19 98 4.0 8.0 0.00 0.00 0.00 95 991.1
20190123141519 19 92 1.0 8.0 0.00 0.00 0.00 95 991.1
20190123140025 19 90 2.0 6.0 0.00 0.00 0.00 95 991.0
20190123134514 19 106 3.0 6.0 0.00 0.00 0.00 95 991.1
20190123133010 19 74 3.0 7.0 0.00 0.00 0.00 95 991.0
20190123131511 19 89 3.0 8.0 0.00 0.00 0.00 95 991.1
20190123130027 19 80 3.0 6.0 0.00 0.00 0.00 95 991.2
20190123124505 19 107 2.0 8.0 0.00 0.00 0.00 95 991.3
20190123123041 19 112 3.0 8.0 0.00 0.00 0.00 95 991.4
20190123121513 19 87 3.0 8.0 0.00 0.00 0.00 95 991.4
20190123120203 19 92 3.0 8.0 0.00 0.00 0.00 95 991.5
20190123114701 19 90 4.0 9.0 0.00 0.00 0.00 95 991.7
20190123113207 19 99 4.0 9.0 0.00 0.00 0.00 95 991.7
20190123111714 19 83 3.0 8.0 0.00 0.00 0.00 95 991.8
20190123110126 19 57 4.0 7.0 0.00 0.00 0.00 95 991.8
20190123104640 19 76 3.0 8.0 0.00 0.00 0.00 95 992.0
20190123103131 18 96 2.0 9.0 0.00 0.00 0.00 95 992.0
20190123101642 18 105 3.0 8.0 0.00 0.00 0.00 95 992.2
20190123100125 18 104 2.0 9.0 0.00 0.00 0.00 95 992.4
20190123094609 18 97 4.0 8.0 0.00 0.00 0.00 95 992.5
20190123093201 18 32 4.0 8.0 0.00 0.00 0.00 95 992.6
20190123091618 18 121 2.0 8.0 0.00 0.00 0.00 95 992.5
20190123090139 18 95 3.0 12.0 0.00 0.00 0.00 95 992.5
20190123084636 18 83 4.0 9.0 0.00 0.00 0.00 95 992.5
20190123081638 18 44 2.0 9.0 0.00 0.00 0.00 95 992.4
20190123080123 17 118 3.0 9.0 0.00 0.00 0.00 95 992.3
20190123074744 17 104 4.0 10.0 0.00 0.00 0.00 95 992.3
20190123073111 0 0.0 0.0 0.00 0.00 0.00 992.3
20190123071610 0 0.0 0.0 0.00 0.00 0.00 992.4
20190123070042 0 0.0 0.0 0.00 0.00 0.00 992.5
20190123064557 0 0.0 0.0 0.00 0.00 0.00 992.6
20190123063055 0 0.0 0.0 0.00 0.00 0.00 992.6
20190123061554 0 0.0 0.0 0.00 0.00 0.00 992.7
20190123060016 0 0.0 0.0 0.00 0.00 0.00 992.7
20190123054519 0 0.0 0.0 0.00 0.00 0.00 992.9
20190123053005 0 0.0 0.0 0.00 0.00 0.00 993.0
20190123051503 18 103 4.0 9.0 0.00 0.00 0.00 95 993.1
20190123050128 18 103 4.0 10.0 0.00 0.00 0.00 95 993.2
20190123044634 18 92 4.0 9.0 0.00 0.00 0.00 95 993.2
20190123043153 18 88 4.0 10.0 0.00 0.00 0.00 95 993.3
20190123041639 18 81 3.0 9.0 0.00 0.00 0.00 95 993.3
20190123040214 18 92 3.0 11.0 0.00 0.00 0.00 95 993.4
20190123034623 18 76 3.0 10.0 0.00 0.00 0.00 95 993.3
20190123033147 18 116 4.0 11.0 0.00 0.00 0.00 95 993.5
20190123031634 18 83 6.0 11.0 0.00 0.00 0.00 95 993.6
20190123030146 18 92 6.0 12.0 0.00 0.00 0.00 95 993.7
20190123024712 18 78 8.0 13.0 0.00 0.00 0.00 95 993.7
20190123023206 18 45 5.0 11.0 0.00 0.00 0.00 95 994.0
20190123021624 18 85 5.0 11.0 0.00 0.00 0.00 95 994.2
20190123020138 18 112 4.0 12.0 0.00 0.00 0.00 95 994.4
20190123014635 18 96 6.0 14.0 0.00 0.00 0.00 95 994.5
20190123013118 18 87 6.0 12.0 0.00 0.00 0.00 95 994.6
20190123011627 18 59 6.0 13.0 0.00 0.00 0.00 95 994.6
20190123010123 18 73 4.0 15.0 0.00 0.00 0.00 95 994.7
20190123004607 18 145 8.0 14.0 0.00 0.00 0.00 95 994.7
20190123003049 18 107 6.0 15.0 0.00 0.00 0.00 95 994.8
20190123001540 18 88 6.0 15.0 0.00 0.00 0.00 95 995.1
20190123000026 18 107 8.0 14.0 0.00 0.00 0.00 95 995.1
20190122234631 18 119 5.0 12.0 0.00 0.00 0.00 95 995.2
20190122233026 18 117 9.0 15.0 0.00 0.00 0.00 95 995.2
20190122231518 18 111 6.0 14.0 0.00 0.00 0.00 95 995.5
20190122230048 18 75 8.0 14.0 0.00 0.00 0.00 95 995.7
20190122224553 18 94 6.0 12.0 0.00 0.00 0.00 95 995.9